Theta_e
312 312 312 312 313 313 312 309 309 309 308 308 308 308 308 309 309 308 308 307 307 307 308 309 309 310 322 328 330 330 319 327 338 350 351 352 355 354 356 351 351 352 349 349 349 349 350
311 312 311 312 312 312 311 310 309 308 308 308 308 309 309 310 310 310 310 308 308 307 308 309 309 310 326 327 327 333 333 338 342 347 351 352 353 352 354 353 353 351 350 349 349 351 351
311 311 311 311 311 311 310 310 310 309 307 307 307 309 310 310 310 311 311 310 308 308 308 309 310 318 327 326 324 335 334 338 342 345 352 352 351 354 352 354 353 352 352 351 352 352 353
311 311 311 311 311 311 310 309 309 309 308 307 307 308 309 310 310 310 311 311 309 311 313 313 311 324 327 323 326 336 334 337 340 344 347 353 352 355 354 354 352 352 351 356 351 352 353
312 312 311 310 310 310 310 310 309 309 308 306 306 307 308 309 310 310 311 311 312 315 315 313 321 326 325 321 324 333 339 340 340 343 348 351 353 356 354 356 357 353 363 357 356 352 353
310 310 309 310 310 310 310 310 309 309 309 308 306 306 307 308 309 309 311 312 317 317 320 323 324 325 323 325 323 331 339 339 342 344 345 348 352 356 353 356 363 362 356 355 355 356 353
310 310 309 308 309 310 310 310 311 310 309 308 307 306 306 307 308 309 312 318 325 328 324 325 324 325 325 324 324 333 335 336 341 344 348 349 352 354 354 355 355 357 355 355 355 354 355
309 309 309 310 309 309 309 309 310 310 310 308 308 306 307 307 308 309 311 320 320 321 326 326 324 323 326 325 325 331 332 338 342 343 344 348 352 349 352 353 354 354 355 353 353 352 353
308 308 309 309 309 308 308 308 308 309 309 308 307 305 306 307 308 312 318 318 316 320 325 327 325 323 324 325 326 327 333 335 337 339 341 343 347 347 351 353 354 352 352 352 354 354 353
308 308 308 308 308 309 308 307 307 309 309 308 306 305 306 307 315 319 318 317 315 321 328 328 326 326 323 324 325 326 330 333 336 337 337 338 342 344 348 347 351 352 350 348 350 353 355
308 309 308 307 308 309 308 307 309 310 308 308 305 305 306 307 312 318 320 316 318 322 331 329 327 326 325 324 326 326 328 331 334 336 336 338 340 344 345 345 348 351 349 349 349 352 349
307 308 308 308 307 308 308 308 309 310 309 308 305 305 306 316 315 315 317 318 320 328 329 328 328 328 327 325 326 327 326 329 333 337 336 337 338 339 342 343 348 345 349 347 347 348 350
307 306 307 307 307 307 307 308 308 309 309 307 305 306 308 312 319 316 317 320 327 330 328 329 329 327 327 325 326 327 326 328 334 337 339 337 339 340 339 340 343 346 348 351 352 354 353
306 306 306 307 307 305 306 308 309 308 309 306 306 308 313 311 314 316 319 324 329 330 329 329 329 328 327 327 325 327 327 326 330 334 337 341 340 339 340 342 344 345 347 348 357 359 355
306 306 306 307 307 307 305 307 308 308 309 306 308 317 316 317 314 316 323 326 329 330 328 328 329 330 329 327 326 327 327 327 332 330 335 339 339 335 340 342 343 345 346 344 348 346 343
305 305 306 306 307 307 306 305 307 308 308 306 313 318 320 317 315 318 324 324 327 328 327 328 330 330 331 330 328 327 328 328 327 328 331 333 337 336 337 340 341 344 347 343 344 347 347
305 305 305 306 306 306 306 304 307 309 307 310 316 322 321 317 315 320 324 325 327 327 327 327 328 330 330 331 330 329 328 328 327 327 328 330 329 333 334 338 341 343 345 347 352 348 354
304 305 305 305 306 306 306 304 308 309 306 312 321 321 320 317 318 319 321 324 324 327 326 327 327 328 331 331 332 330 329 328 328 327 328 329 328 329 331 332 336 338 342 340 343 344 340
304 304 304 305 306 306 304 306 309 308 306 311 326 325 318 317 319 320 320 321 325 326 326 327 326 327 329 331 332 331 330 329 327 326 328 328 328 328 331 335 336 337 336 339 340 339 344
304 305 304 305 305 305 304 308 309 307 306 311 323 325 321 319 321 323 322 322 324 325 326 327 327 327 329 331 331 331 330 328 327 326 335 330 327 326 329 333 335 336 335 338 340 343 343
305 304 305 305 305 305 305 308 309 308 306 311 322 325 325 322 321 322 324 322 324 326 325 326 327 327 328 332 332 332 330 329 327 331 327 326 326 327 328 330 331 330 332 332 334 337 339
305 304 306 306 306 305 306 307 308 308 308 316 324 323 326 325 322 321 320 323 323 324 326 325 328 328 328 330 332 332 332 331 329 328 328 327 327 328 328 328 329 329 328 329 331 332 334
304 304 305 306 306 305 306 306 307 308 310 317 318 318 322 324 325 323 322 323 323 324 326 326 326 328 328 328 330 331 332 332 330 330 330 330 328 330 332 331 332 332 329 329 329 330 330
304 303 304 303 303 304 304 305 307 308 306 313 317 317 322 322 325 326 324 323 323 325 326 325 326 327 329 328 328 328 329 331 332 332 330 331 332 332 333 335 335 332 332 330 329 330 330
304 304 303 303 305 306 304 306 307 308 305 311 316 318 321 322 323 324 327 324 325 326 327 326 325 328 327 327 327 328 329 330 331 331 331 331 332 333 334 335 333 332 334 332 331 338 338
303 304 304 306 307 307 304 306 306 308 305 310 316 316 319 322 322 324 327 325 327 327 327 326 326 326 326 327 328 331 332 331 332 330 330 330 331 334 335 336 335 338 334 334 334 336 338
304 302 304 304 306 305 306 307 307 307 304 308 314 315 317 320 320 322 325 327 326 328 328 327 327 326 326 328 329 330 331 331 332 334 333 330 331 332 333 334 335 334 334 334 335 340 337
303 303 305 305 306 307 306 307 307 306 304 308 314 315 316 320 320 319 320 324 325 326 329 329 327 327 327 328 329 330 330 332 332 333 335 335 333 333 333 334 334 333 335 340 336 336 335
305 305 305 306 307 307 307 308 307 304 305 308 313 314 315 318 318 316 317 317 319 319 324 325 328 329 329 328 329 330 329 330 331 332 331 333 333 335 336 339 332 330 330 329 330 332 332
Wind_Speed
13 12 13 12 13 16 16 15 14 14 15 15 14 14 13 12 13 13 13 14 13 11 11 10 8 8 6 9 3 3 11 14 14 9 13 7 12 2 8 4 6 4 6 2 3 5 4
14 12 12 13 14 14 16 16 16 15 15 15 15 14 14 13 13 14 15 14 14 11 9 8 7 6 7 14 6 6 12 15 13 12 11 9 4 6 2 2 4 4 2 0 7 4 5
13 14 13 13 14 12 15 16 16 16 15 15 15 15 15 14 14 14 16 15 14 12 9 7 6 4 12 6 4 8 13 16 14 14 9 3 2 11 1 4 2 5 8 9 1 5 4
14 14 14 14 14 15 13 16 16 17 17 16 16 16 16 15 15 15 15 16 13 9 6 4 5 6 8 6 5 9 14 16 13 11 11 3 5 10 7 3 9 11 5 0 9 3 6
12 13 14 15 14 16 12 16 16 17 17 17 16 17 16 16 16 17 15 14 8 5 3 2 5 8 11 4 13 14 15 18 15 12 9 4 10 15 5 12 7 6 3 3 7 3 2
14 12 11 13 15 16 14 16 16 16 17 18 18 17 17 18 17 18 14 10 6 3 3 6 10 7 10 13 15 17 16 16 17 12 11 12 9 14 12 10 4 9 2 5 2 7 6
16 15 15 13 12 14 16 17 16 16 17 19 18 19 18 18 17 17 13 4 5 7 15 12 6 9 5 6 12 16 20 18 17 13 16 17 12 15 16 6 6 12 5 8 2 3 5
14 14 15 16 18 15 15 15 15 16 17 18 19 19 18 18 17 16 8 8 9 6 8 20 15 17 2 14 12 17 20 18 18 17 18 16 17 10 6 3 9 9 10 7 4 3 7
15 16 15 15 16 20 17 16 16 16 17 19 20 19 20 17 17 9 10 12 4 7 7 15 19 17 15 12 14 21 23 23 19 21 19 21 15 15 12 13 11 12 10 2 10 3 12
14 16 15 16 16 19 20 18 17 17 18 19 21 20 20 16 7 5 8 5 7 5 6 14 14 13 20 12 15 21 27 22 14 20 21 19 19 7 6 14 14 11 4 6 6 10 6
15 16 18 15 17 19 22 19 18 18 20 21 21 22 19 11 14 6 5 3 4 6 6 15 15 12 16 18 6 19 28 24 24 19 15 18 19 13 15 18 15 4 3 7 3 10 15
15 15 17 18 18 18 19 22 19 21 22 24 23 25 20 4 8 12 5 4 7 7 11 10 11 14 20 23 12 19 20 26 20 20 19 20 15 12 14 16 9 12 2 11 14 13 12
15 16 17 18 18 20 17 20 20 22 24 26 27 26 18 10 1 2 7 9 7 11 7 12 13 19 21 19 21 14 24 25 22 20 20 17 18 14 15 19 16 12 14 13 11 10 4
17 17 16 17 19 23 18 21 22 24 27 30 29 16 9 17 8 8 10 8 12 11 18 6 8 18 21 21 23 18 21 23 27 23 15 17 18 18 12 20 17 15 19 14 3 11 8
17 17 17 18 20 22 24 22 24 26 28 34 17 6 12 8 15 11 10 13 10 13 9 8 9 13 19 20 17 19 22 23 25 26 22 18 20 23 15 17 21 19 18 17 14 19 8
16 17 17 17 19 22 26 23 24 27 30 27 10 9 8 8 16 14 10 18 19 2 7 7 14 13 16 20 18 23 22 22 24 27 23 16 13 14 19 14 18 12 10 11 8 10 12
16 16 16 17 19 21 25 24 24 27 31 13 7 5 8 11 16 9 14 21 22 5 7 10 14 12 17 16 20 19 21 17 24 26 26 23 10 13 16 17 17 13 13 13 1 10 3
17 16 15 17 18 20 25 23 23 26 32 4 10 7 8 18 10 11 16 22 20 8 10 12 10 8 11 18 16 21 20 21 11 24 28 23 10 13 21 16 15 20 19 19 13 16 10
17 16 14 16 18 19 25 20 22 23 25 13 4 4 8 19 8 13 18 23 22 14 13 13 11 11 11 13 10 16 14 16 12 21 24 20 18 15 16 18 18 17 22 22 22 19 18
17 15 16 16 18 20 23 18 21 22 23 5 5 6 6 8 14 16 17 20 21 13 16 14 8 4 9 13 14 11 13 10 10 16 8 14 18 18 14 16 17 18 17 19 21 14 13
16 15 16 16 17 20 19 18 22 22 23 4 5 6 3 8 14 16 16 16 18 18 20 11 11 15 13 12 12 11 13 15 12 8 11 17 19 20 19 17 9 13 18 18 19 20 19
15 16 16 17 18 19 16 19 23 24 19 7 6 4 4 12 5 18 16 16 17 19 17 21 14 17 15 13 12 13 15 13 16 14 15 18 19 17 16 17 15 17 17 14 18 18 17
15 15 15 16 16 17 15 17 20 22 16 6 7 11 5 7 14 11 15 15 17 14 18 12 16 17 15 14 5 10 10 8 16 17 17 17 15 15 11 15 18 18 18 15 15 16 16
15 15 15 16 15 15 15 15 17 17 15 10 7 9 7 11 10 10 14 15 13 13 10 12 11 14 3 3 3 8 10 4 4 11 16 16 16 11 10 7 13 10 13 15 14 14 12
15 13 14 14 14 15 13 14 15 15 15 11 7 7 6 10 9 12 9 10 9 4 7 4 9 4 2 6 9 12 9 11 11 10 9 9 10 10 10 9 7 8 5 6 6 12 16
16 13 13 15 15 13 12 13 13 14 15 10 5 5 7 7 1 7 7 11 11 10 14 8 0 8 7 8 12 15 12 10 12 8 12 12 11 9 8 11 12 14 7 6 5 6 15
15 14 14 15 13 13 14 12 12 12 13 8 7 5 7 8 1 5 5 6 9 11 11 10 6 10 11 10 12 13 14 17 16 18 9 11 8 11 10 10 2 7 6 3 8 6 11
12 14 14 13 13 14 11 10 11 13 11 9 4 3 7 6 5 5 5 7 5 8 6 9 4 8 9 12 12 10 10 7 9 3 7 11 12 11 13 15 13 13 4 5 5 8 10
13 14 13 12 11 10 10 9 11 11 9 6 6 2 5 6 6 1 3 3 5 8 8 2 4 5 7 6 5 4 5 1 6 7 5 3 8 6 7 5 8 13 14 11 10 9 10
Wind_Direction
9 6 0 360 359 2 2 360 354 353 353 354 351 351 352 352 347 342 337 330 328 321 313 309 311 308 302 222 234 130 159 159 168 206 224 187 249 266 252 96 222 286 123 198 119 160 128
5 5 3 358 356 356 1 359 356 351 350 348 347 344 344 344 344 338 334 331 322 316 303 296 292 293 247 250 109 138 156 167 192 209 216 212 1 285 85 329 228 53 289 150 146 163 133
5 4 3 357 355 350 358 357 354 352 347 344 342 341 336 335 339 336 332 328 319 310 296 280 266 268 262 264 178 184 181 189 202 213 219 144 270 254 141 176 39 274 196 162 135 134 109
3 1 1 1 356 352 352 354 351 351 349 344 339 335 333 329 332 330 330 326 324 311 304 267 231 248 262 136 200 199 192 198 205 219 263 136 246 287 273 10 209 228 258 150 125 178 114
1 360 359 355 355 352 348 353 351 351 350 345 337 331 329 326 326 325 327 322 323 312 299 185 214 231 242 161 199 198 193 194 196 209 229 228 257 249 185 243 253 175 297 204 162 182 340
344 339 345 348 350 351 351 352 352 351 350 346 340 332 326 323 323 323 325 310 273 263 259 238 263 240 230 218 188 183 193 193 196 197 210 218 228 234 232 228 197 319 150 298 215 137 231
6 8 4 353 344 348 348 343 346 347 346 345 339 331 323 321 321 324 328 248 209 202 216 226 199 230 130 109 155 189 188 193 201 216 219 199 217 233 199 141 151 243 258 239 205 94 272
0 1 360 358 359 346 338 340 345 345 343 341 337 328 322 321 318 315 301 251 38 350 285 220 244 232 291 180 185 191 184 196 200 211 221 218 229 238 122 86 229 230 239 283 195 108 267
357 354 353 352 353 353 348 345 344 345 343 341 338 330 323 322 316 295 243 257 306 307 258 207 209 216 199 207 218 190 194 201 199 216 214 237 213 217 171 203 237 219 247 198 306 260 246
356 355 347 351 350 352 354 346 344 343 343 341 338 331 326 326 307 327 254 225 234 269 267 179 199 218 209 215 225 199 199 204 208 222 227 228 246 195 253 240 217 230 149 245 260 268 287
355 354 356 353 347 345 348 348 345 342 341 340 336 328 325 329 308 251 27 194 249 236 261 135 144 137 181 200 210 201 189 218 227 214 222 221 230 191 233 228 229 121 208 269 272 271 265
353 353 351 351 347 342 339 343 342 341 338 337 334 328 319 292 233 248 297 239 222 229 243 159 150 190 191 206 205 174 194 216 226 239 229 242 214 250 221 230 178 248 262 250 235 242 258
353 351 347 345 344 339 337 339 339 340 337 334 329 320 292 265 236 245 216 224 212 236 123 164 175 177 196 190 207 175 193 198 214 218 226 210 241 206 243 230 231 211 245 243 223 244 226
350 350 347 346 346 349 341 342 340 337 336 333 325 299 283 229 253 243 218 216 236 217 229 102 195 180 200 192 210 182 195 202 211 220 220 210 210 207 181 239 211 216 237 254 261 229 113
345 342 343 345 343 346 347 338 339 337 336 336 326 272 223 248 205 208 219 217 217 250 253 166 200 199 200 202 200 190 208 210 203 223 234 204 226 195 202 220 230 204 216 261 286 231 255
339 340 340 343 343 342 344 340 339 338 336 339 312 254 209 181 182 199 222 236 234 278 323 264 212 210 199 202 197 197 201 207 212 212 234 252 226 183 196 201 241 252 272 231 230 273 282
337 337 337 341 343 341 341 341 342 341 338 326 246 224 118 166 175 209 218 228 243 138 235 249 243 251 234 195 204 218 214 216 207 204 221 244 227 199 182 214 225 202 247 258 202 273 293
342 339 336 340 343 342 339 341 345 348 347 298 280 223 150 165 192 211 220 232 242 244 206 258 286 262 246 246 195 221 207 219 201 214 205 223 248 229 203 214 219 251 211 236 248 234 259
344 341 338 339 342 344 341 343 346 352 355 316 255 130 159 194 220 216 224 235 243 225 216 224 228 238 227 259 223 212 218 217 170 214 197 205 230 244 221 197 209 228 237 237 228 246 255
345 342 341 343 347 343 343 345 347 351 350 308 270 201 152 213 252 282 215 225 230 213 259 227 249 229 230 241 225 208 218 171 167 228 86 221 221 228 239 223 190 209 244 258 270 269 263
343 344 343 345 345 341 344 348 349 347 347 289 240 251 77 191 227 234 253 217 223 215 219 245 233 251 229 227 216 231 215 151 197 160 189 225 228 235 236 270 249 239 206 225 246 260 262
340 341 341 342 344 344 349 350 350 347 343 246 301 302 333 267 221 216 233 245 229 221 207 219 226 215 242 245 216 220 207 168 192 181 216 209 234 233 240 251 240 248 246 242 220 240 263
337 338 339 339 341 344 346 347 350 352 356 306 15 270 268 268 247 230 222 223 233 243 226 230 221 237 218 233 357 342 343 217 184 184 204 212 230 227 234 243 248 234 240 231 238 239 242
338 338 339 336 336 339 340 343 349 351 1 316 327 296 268 254 234 241 235 226 233 235 210 216 238 235 60 325 260 266 271 258 288 216 205 213 217 238 250 276 241 233 238 213 250 263 273
335 333 332 333 334 339 340 345 345 345 348 318 314 302 287 271 278 239 268 257 199 151 234 256 210 10 218 230 220 214 208 213 215 233 248 265 223 225 237 236 247 169 58 346 312 63 23
340 335 335 336 340 344 343 342 340 341 344 322 294 311 274 284 279 5 284 237 234 207 203 232 167 249 245 235 217 208 209 199 205 197 242 253 247 282 240 268 262 72 36 8 310 174 10
341 338 339 339 346 346 344 344 343 343 342 330 285 319 275 270 10 326 262 312 251 277 222 175 196 202 222 233 222 216 225 211 211 204 188 227 245 229 235 258 178 32 14 306 242 45 6
334 337 342 346 348 346 342 340 340 343 343 341 278 290 311 287 69 328 346 338 318 264 276 105 203 232 198 231 226 221 234 185 227 48 229 204 217 229 244 253 241 350 66 359 51 55 18
342 338 340 345 352 357 349 339 340 341 342 330 280 267 289 267 351 321 334 340 320 332 324 290 348 351 25 242 238 307 191 84 261 217 180 262 12 360 18 53 87 57 73 57 30 46 18